Location: Lombard
(41.8800°N, 88.0080°W)
Time: 00:02:32
(UTC-05:00)

Tiros 1 - Pass Details

Date: 05 February 2023
Orbit: 628 x 662 km, 48.4° (Epoch: 20 March)

Event Time Altitude Azimuth Distance (km) Brightness Sun altitude
Rises 22:56:22 0° 229° (SW) 2,898 - -59.8°
Reaches altitude 10° 22:58:42 10° 226° (SW) 1,994 - -60.1°
Maximum altitude 23:03:12 61° 146° (SSE) 714 - -60.5°
Drops below altitude 10° 23:07:46 10° 67° (ENE) 2,010 - -61.0°
Sets 23:10:07 0° 64° (ENE) 2,924 - -61.2°
